James Reserve, California Weather observations

Data are for 10 minute period ending at time listed.
 Day   Time   Solar   Ave.   Ave.  Ave.  Vector  Max.   Baro.   Total    
  of    of     Rad.   Air    Rel.  Wind   Wind   Wind  Press.  Precip.   
Year   Day            Temp.  Hum.  Speed  Dir.   Gust                    
2015   (PST)  Kw/m2    F      %     mph   deg.    mph    mb.     in.     
-------------------------------------------------------------------------
  58   22:40   0.00   39.1    99    1.1    63     2.4   829.0    0.00 
  58   22:50   0.00   39.0    99    1.0    76     2.3   828.0    0.00 
  58   23:00   0.00   38.9    99    1.1    82     3.4   828.0    0.00 
  58   23:10   0.00   38.8    99    1.0    74     3.6   828.0    0.00 
  58   23:20   0.00   38.8    99    1.1    77     2.2   828.0    0.00 
  58   23:30   0.00   38.6    99    1.2    75     5.4   828.0    0.01 
  58   23:40   0.00   38.4    99    1.0    71     2.4   828.0    0.00 
  58   23:50   0.00   38.4    99    1.1    60     2.0   828.0    0.00 
  59    0:00   0.00   38.4    99    1.2    51     3.1   828.0    0.00 
  59    0:10   0.00   38.2    99    1.4    70     2.9   828.0    0.00 
  59    0:20   0.00   38.0    99    1.1    59     2.5   828.0    0.00 
  59    0:30   0.00   38.0    99    1.1    49     3.3   828.0    0.00 
  59    0:40   0.00   37.8    99    1.0    60     3.0   828.0    0.00 
  59    0:50   0.00   37.6    99    1.2    58     2.9   828.0    0.00 
  59    1:00   0.00   37.4    99    1.3    72     3.8   828.0    0.00 
  59    1:10   0.00   37.2    99    1.2    73     2.7   828.0    0.00 
  59    1:20   0.00   37.2    99    1.0    65     2.6   828.0    0.00 
  59    1:30   0.00   37.1    99    1.1    72     2.0   828.0    0.00 
  59    1:40   0.00   37.0    99    1.2    69     2.9   828.0    0.00 
  59    1:50   0.00   36.9   100    0.9    64     2.4   828.0    0.00 
  59    2:00   0.00   36.7   100    0.9    87     2.8   828.0    0.00 
  59    2:10   0.00   36.7   100    0.9    75     2.7   828.0    0.00 
  59    2:20   0.00   36.7   100    1.1    81     6.1   828.0    0.00 
  59    2:30   0.00   36.9   100    1.2    70     4.1   828.0    0.00 
  59    2:40   0.00   36.9   100    1.4    60     2.8   828.0    0.00 
  59    2:50   0.00   36.5   100    1.1    71     2.8   828.0    0.00 
  59    3:00   0.00   36.1   100    1.0    67     2.5   828.0    0.00 
  59    3:10   0.00   36.2   100    1.1    87     4.8   828.0    0.00 
  59    3:20   0.00   36.3   100    1.3    72     3.4   828.0    0.00 
  59    3:30   0.00   35.7   100    1.3   108     3.3   828.0    0.00 
  59    3:40   0.00   35.4   100    1.2    89     2.6   828.0    0.00 
  59    3:50   0.00   35.4   100    1.2    78     2.3   828.0    0.00 
  59    4:00   0.00   35.1   100    1.0    66     2.9   828.0    0.00 
  59    4:10   0.00   35.1   100    0.9    84     2.7   828.0    0.00 
  59    4:20   0.00   35.0   100    0.9   104     3.2   828.0    0.00 
  59    4:30   0.00   34.9   100    1.0    82     2.7   828.0    0.00 
  59    4:40   0.00   35.0   100    1.0    52     2.2   828.0    0.00 
  59    4:50   0.00   34.9   100    0.9    53     1.8   828.0    0.00 
  59    5:00   0.00   34.7   100    0.8   152     2.5   828.0    0.00 
  59    5:10   0.00   34.6   100    0.8    81     2.3   828.0    0.00 
  59    5:20   0.00   34.3   100    0.8    99     2.3   828.0    0.00 
  59    5:30   0.00   34.4   100    0.8    81     2.0   828.0    0.00 
  59    5:40   0.00   34.5   100    1.0    92     4.0   828.0    0.00 
  59    5:50   0.00   34.4   100    1.1   115     3.1   828.0    0.00 
  59    6:00   0.00   34.3   100    0.8   165     2.1   828.0    0.00 
  59    6:10   0.00   34.2   100    0.8   106     2.4   828.0    0.00 
  59    6:20   0.00   34.0   100    0.8    82     2.1   828.0    0.00 
  59    6:30   0.00   34.2   100    0.7    72     1.9   829.0    0.00 
  59    6:40   0.00   33.7   100    0.9   112     3.1   829.0    0.00 
  59    6:50   0.00   33.6   100    0.7   149     3.0   829.0    0.00 
  59    7:00   0.01   33.2   100    0.7    70     1.7   829.0    0.00 
  59    7:10   0.01   33.0   100    0.9   101     4.0   829.0    0.00 
  59    7:20   0.01   32.6   100    1.4   146     3.0   829.0    0.00 
  59    7:30   0.03   32.6   100    0.8   134     2.8   829.0    0.00 
  59    7:40   0.04   32.6   100    0.8    78     2.6   829.0    0.00 
  59    7:50   0.03   32.5   100    0.8   174     3.3   829.0    0.00 
  59    8:00   0.07   32.8   100    0.9    70     2.2   830.0    0.00 
  59    8:10   0.04   32.9   100    0.7    92     1.9   830.0    0.00 
  59    8:20   0.07   33.1   100    0.8   130     1.7   830.0    0.00 
  59    8:30   0.06   33.2   100    0.7    92     1.9   830.0    0.00 
  59    8:40   0.09   33.5   100    0.7   105     2.6   830.0    0.00 
  59    8:50   0.08   33.6   100    0.6   314     1.5   830.0    0.00 
  59    9:00   0.14   33.7   100    0.7    74     2.1   830.0    0.00 
  59    9:10   0.16   34.3   100    0.8    57     1.8   830.0    0.00 
  59    9:20   0.10   33.9   100    0.8    15     1.9   830.0    0.00 
  59    9:30   0.12   33.7   100    0.6    38     1.4   830.0    0.00 
  59    9:40   0.16   33.8   100    0.9    54     3.2   830.0    0.00 
  59    9:50   0.16   34.3   100    0.9   114     2.6   830.0    0.00 
  59   10:00   0.09   34.5   100    1.0   150     2.4   830.0    0.00 
  59   10:10   0.16   34.8   100    0.7    72     2.1   830.0    0.00 
  59   10:20   0.09   34.8   100    1.1    33     2.1   831.0    0.00 
  59   10:30   0.18   34.8   100    0.8    84     1.8   831.0    0.00 
  59   10:40   0.12   35.1   100    1.2    63     3.3   831.0    0.00 
  59   10:50   0.19   35.8   100    0.9    18     2.1   831.0    0.00 
  59   11:00   0.12   35.7   100    0.9    11     2.6   831.0    0.00 
  59   11:10   0.16   35.4   100    1.1    52     2.2   831.0    0.00 
  59   11:20   0.18   35.7   100    0.9    21     2.2   831.0    0.00 
  59   11:30   0.15   35.8    99    1.0    36     2.6   831.0    0.00 
  59   11:40   0.29   36.4    99    0.8    23     2.0   831.0    0.00 
  59   11:50   0.23   36.6    99    1.0    20     2.7   831.0    0.00 
  59   12:00   0.29   37.1    99    1.1    40     2.9   831.0    0.00 
  59   12:10   0.25   37.5    98    1.0   340     2.3   831.0    0.00 
  59   12:20   0.12   36.8    96    0.9     8     2.1   830.0    0.00 
  59   12:30   0.17   36.7    93    1.1    56     4.0   830.0    0.00 
  59   12:40   0.08   36.5    93    0.9    67     2.1   830.0    0.00 
  59   12:50   0.04   35.4    93    1.2    71     3.5   830.0    0.02 
  59   13:00   0.04   34.5    96    0.8    64     2.4   830.0    0.02 
  59   13:10   0.04   33.7    97    1.0    70     2.0   830.0    0.03 
  59   13:20   0.05   33.1    98    0.8    44     1.9   830.0    0.03 
  59   13:30   0.07   32.9    98    1.0    48     2.7   830.0    0.01 
  59   13:40   0.05   33.3    99    0.7    37     2.0   830.0    0.00 
  59   13:50   0.06   33.8    99    0.8    49     2.1   830.0    0.01 
  59   14:00   0.06   34.3    99    1.1    53     2.6   830.0    0.01 
  59   14:10   0.06   34.6    99    1.2    70     3.0   830.0    0.01 
  59   14:20   0.10   34.4    99    1.1    75     2.5   830.0    0.00 
  59   14:30   0.10   34.7    99    0.6    65     3.2   830.0    0.00 
  59   14:40   0.07   35.4    99    0.8    21     2.7   830.0    0.00 
  59   14:50   0.06   35.2    99    0.8    66     2.4   830.0    0.01 
  59   15:00   0.05   34.4    99    0.7    44     1.9   830.0    0.01 
  59   15:10   0.04   33.8    99    0.6    24     1.7   830.0    0.02 
  59   15:20   0.03   33.0    99    0.6    51     1.1   830.0    0.01 
  59   15:30   0.04   33.0    99    0.4    39     1.6   830.0    0.00 
  59   15:40   0.05   33.6    99    0.8    46     1.8   830.0    0.00 
  59   15:50   0.04   34.1    99    0.6    19     1.6   830.0    0.00 
  59   16:00   0.04   34.9    99    0.8   329     2.6   830.0    0.00 
  59   16:10   0.05   35.0    99    0.7    51     2.1   830.0    0.00 
  59   16:20   0.04   35.0    99    0.7    83     1.8   830.0    0.00 
  59   16:30   0.02   34.9    99    0.4    28     1.2   830.0    0.00 
  59   16:40   0.02   35.0    99    0.7    46     1.8   830.0    0.00 
  59   16:50   0.03   35.1    99    0.6    62     1.6   830.0    0.00 
  59   17:00   0.02   35.2    99    0.4    52     1.2   830.0    0.00 
  59   17:10   0.01   34.9    99    0.5    88     1.1   830.0    0.00 
  59   17:20   0.01   34.8    99    0.7    64     1.4   831.0    0.00 
  59   17:30   0.01   34.9    99    0.6    79     1.6   831.0    0.00 
  59   17:40   0.00   34.9    99    0.6    90     1.5   831.0    0.00 
  59   17:50   0.00   34.8    99    0.3   105     0.9   831.0    0.00 
  59   18:00   0.00   34.7    99    0.7    91     1.4   831.0    0.00 
  59   18:10   0.00   34.5    99    0.5    64     1.2   831.0    0.00 
  59   18:20   0.00   34.1    99    0.6    59     1.2   831.0    0.00 
  59   18:30   0.00   33.7    99    0.6    62     1.1   831.0    0.00 
  59   18:40   0.00   33.5    99    0.4    57     0.9   831.0    0.00 
  59   18:50   0.00   33.7    99    0.7    56     2.1   831.0    0.00 
  59   19:00   0.00   33.8    99    0.5    57     1.3   831.0    0.00 
  59   19:10   0.00   33.8    99    0.2    42     0.6   831.0    0.00 
  59   19:20   0.00   33.8    99    0.4    43     0.7   831.0    0.00 
  59   19:30   0.00   33.7    99    0.4    53     0.8   831.0    0.00 
  59   19:40   0.00   33.7    99    0.2   133     0.6   831.0    0.00 
  59   19:50   0.00   33.7    99    0.4    56     0.8   831.0    0.00 
  59   20:00   0.00   33.7    99    0.5    50     1.2   831.0    0.00 
  59   20:10   0.00   33.7    99    0.3   135     0.6   831.0    0.00 
  59   20:20   0.00   33.7    99    0.3    46     0.9   831.0    0.00 
  59   20:30   0.00   33.7    99    0.2    28     0.7   831.0    0.00 
  59   20:40   0.00   33.5    99    0.4    47     0.9   831.0    0.00 
  59   20:50   0.00   33.5    99    0.4    50     0.8   831.0    0.00 
  59   21:00   0.00   33.6   100    0.2    39     0.6   831.0    0.00 
  59   21:10   0.00   33.5   100    0.3   239     0.7   831.0    0.00 
  59   21:20   0.00   33.2   100    0.2    66     0.7   831.0    0.01 
  59   21:30   0.00   32.9   100    0.5    65     1.2   831.0    0.00 
  59   21:40   0.00   32.8   100    0.5    36     0.9   831.0    0.00 
  59   21:50   0.00   32.8   100    0.2    88     0.5   831.0    0.01 
  59   22:00   0.00   32.7   100    0.4    67     0.8   831.0    0.00 
  59   22:10   0.00   32.5   100    0.6    70     1.0   831.0    0.01 
  59   22:20   0.00   32.5   100    0.7    65     1.4   831.0    0.01 
  59   22:30   0.00   32.3   100    0.4    26     0.9   831.0    0.01 

Return to James Reserve graphs page.


Western Regional Climate Center,wrcc@dri.edu